Dyersburg, TN

7:37 AM CST on December 09, 2019 (GMT -0600)
Dyersburg Municipal

Weather History for KDYR - October, 2019

Change the Weather History Date:

Thursday, October 24, 2019

  Actual Average Record
Temperature  
Mean Temperature 58 °F -  
Max Temperature 73 °F 68 °F 82 °F (2000)
Min Temperature 42 °F 47 °F 30 °F (2006)
Degree Days  
Heating Degree Days 8    
Growing Degree Days 8 (Base 50)    
Moisture  
Dew Point 44 °F    
Average Humidity 68    
Maximum Humidity 96    
Minimum Humidity 30    
Precipitation  
Precipitation 0.00 in - - ()
Sea Level Pressure  
Sea Level Pressure 30.23 in    
Wind  
Wind Speed 3 mph ()    
Max Wind Speed 10 mph    
Max Gust Speed -    
Visibility 10.0 miles    
Events      
Averages and records for this station are not official NWS values.
T = Trace of Precipitation, MM = Missing Value Source: Averaged Metar Reports

Daily Weather History Graph

Daily Weather History Graph

Search for Another Location

Airport or City:

Astronomy

Oct. 24, 2019 Rise Set
Actual Time 7:12 AM CDT 6:10 PM CDT
Civil Twilight 6:46 AM CDT 6:36 PM CDT
Nautical Twilight 6:16 AM CDT 7:06 PM CDT
Astronomical Twilight 5:46 AM CDT 7:36 PM CDT
Moon 2:53 AM CDT (10/24) 4:28 PM CDT (10/24)
Length of Visible Light 11h 50m
Length of Day
10h 58m
Waning Crescent, 16% of the Moon is Illuminated
Oct 24
Waning Crescent
Oct 27
New
Nov 4
First Quarter
Nov 12
Full
Nov 19
Last Quarter

Hourly Weather History & Observations

Time (CDT) Temp. Windchill Dew Point Humidity Pressure Visibility Wind Dir Wind Speed Gust Speed Precip Events Conditions
12:56 AM 51.1 °F - 42.1 °F 71% 30.19 in 10.0 mi SSE 3.5 mph - N/A   Clear
1:56 AM 48.9 °F - 42.1 °F 77% 30.20 in 10.0 mi Calm Calm - N/A   Clear
2:56 AM 46.0 °F 44.8 °F 42.1 °F 86% 30.19 in 10.0 mi SSE 3.5 mph - N/A   Clear
3:56 AM 44.1 °F - 42.1 °F 93% 30.19 in 10.0 mi Calm Calm - N/A   Clear
4:56 AM 43.0 °F 41.3 °F 41.0 °F 93% 30.21 in 10.0 mi ENE 3.5 mph - N/A   Clear
5:56 AM 42.1 °F - 41.0 °F 96% 30.22 in 10.0 mi Calm Calm - N/A   Clear
6:56 AM 42.1 °F - 41.0 °F 96% 30.23 in 10.0 mi Calm Calm - N/A   Clear
7:56 AM 44.1 °F - 42.1 °F 93% 30.26 in 10.0 mi Calm Calm - N/A   Clear
8:56 AM 52.0 °F - 46.0 °F 80% 30.27 in 10.0 mi Calm Calm - N/A   Clear
9:56 AM 60.1 °F - 46.0 °F 60% 30.27 in 10.0 mi Calm Calm - N/A   Clear
10:56 AM 64.9 °F - 43.0 °F 45% 30.26 in 10.0 mi South 5.8 mph - N/A   Clear
11:56 AM 69.1 °F - 39.9 °F 35% 30.24 in 10.0 mi Variable 5.8 mph - N/A   Clear
12:56 PM 71.1 °F - 39.9 °F 32% 30.23 in 10.0 mi East 3.5 mph - N/A   Clear
1:56 PM 73.0 °F - 39.9 °F 30% 30.21 in 10.0 mi East 8.1 mph - N/A   Clear
2:56 PM 73.0 °F - 39.9 °F 30% 30.19 in 10.0 mi ESE 5.8 mph - N/A   Clear
3:56 PM 73.0 °F - 39.9 °F 30% 30.19 in 10.0 mi ENE 3.5 mph - N/A   Clear
4:56 PM 68.0 °F - 45.0 °F 43% 30.20 in 10.0 mi North 9.2 mph - N/A   Clear
5:56 PM 61.0 °F - 50.0 °F 67% 30.22 in 10.0 mi North 10.4 mph - N/A   Clear
6:56 PM 57.9 °F - 50.0 °F 75% 30.23 in 10.0 mi NE 10.4 mph - N/A   Mostly Cloudy
7:56 PM 57.0 °F - 48.9 °F 74% 30.24 in 10.0 mi NNE 10.4 mph - N/A   Clear
8:56 PM 55.9 °F - 48.9 °F 77% 30.25 in 10.0 mi NNE 10.4 mph - N/A   Mostly Cloudy
9:56 PM 55.0 °F - 48.9 °F 80% 30.27 in 10.0 mi NNE 8.1 mph - N/A   Scattered Clouds
10:56 PM 55.0 °F - 48.9 °F 80% 30.27 in 10.0 mi NNE 9.2 mph - N/A   Scattered Clouds
11:56 PM 54.0 °F - 48.9 °F 83% 30.26 in 10.0 mi NE 9.2 mph - N/A   Clear